GSAT0211 (GALILEO 14)

Last updated on Tue Mar 03 2026 00:02:36 GMT+0000 (Coordinated Universal Time)

1 41549U 16030A 26061.03814362 .00000013 00000+0 00000+0 0 9997 2 41549 55.1325 224.6385 0003635 25.8297 334.1338 1.70473755 60848
UTC large
Height (km)
Speed (km/s)
/
Latitude / Longitude
Inclination (degrees)
Orbital Period (minutes)
Azimuth
Elevation
Range (km)
Doppler Factor

Next 0 passes for location: London (51.5072 / 0.1276)

Sorry there are no passes over London.